This is the latest recevied weather packets stored in our database for station/object BG5HLN-13. If no packets are shown the sender has not sent any weather packets the latest 10 day(s).
| Time | Temp. | Humidity | Pressure | Rain* | Wind** | Luminosity | Snow |
|---|---|---|---|---|---|---|---|
| 1777974778 | 25° C | 72% | 1011.1 hPa | 0 mm | - | - | - |
| 1777974177 | 25° C | 72% | 1011.1 hPa | 0 mm | - | - | - |
| 1777973578 | 25° C | 71% | 1011.1 hPa | 0 mm | - | - | - |
| 1777972978 | 25° C | 70% | 1011.2 hPa | 0 mm | - | - | - |
| 1777972376 | 25° C | 69% | 1011.3 hPa | 0 mm | - | - | - |
| 1777971778 | 25.56° C | 69% | 1011.3 hPa | 0 mm | - | - | - |
| 1777971178 | 25.56° C | 68% | 1011.4 hPa | 0 mm | - | - | - |
| 1777970577 | 25.56° C | 67% | 1011.4 hPa | 0 mm | - | - | - |
| 1777970576 | 25.56° C | 67% | 1011.4 hPa | 0 mm | - | - | - |
| 1777969978 | 26.11° C | 67% | 1011.5 hPa | 0 mm | - | - | - |
| 1777969378 | 26.11° C | 66% | 1011.6 hPa | 0 mm | - | - | - |
| 1777968778 | 26.11° C | 65% | 1011.8 hPa | 0 mm | - | - | - |
| 1777968776 | 26.11° C | 65% | 1011.7 hPa | 0 mm | - | - | - |
| 1777968178 | 26.67° C | 64% | 1011.9 hPa | 0 mm | - | - | - |
| 1777967577 | 26.67° C | 63% | 1011.9 hPa | 0 mm | - | - | - |
| 1777966977 | 26.67° C | 62% | 1011.9 hPa | 0 mm | - | - | - |
| 1777966376 | 27.22° C | 61% | 1012 hPa | 0 mm | - | - | - |
| 1777965777 | 27.22° C | 58% | 1012.1 hPa | 0 mm | - | - | - |
| 1777965176 | 27.78° C | 58% | 1012.2 hPa | 0 mm | - | - | - |
| 1777964573 | 27.78° C | 56% | 1012.3 hPa | 0 mm | - | - | - |
| 1777963974 | 27.78° C | 55% | 1012.4 hPa | 0 mm | - | - | - |
| 1777963229 | 28.33° C | 55% | 1012.6 hPa | 0 mm | - | - | - |
| 1777963001 | 28.33° C | 56% | 1012.6 hPa | 0 mm | - | - | - |
| 1777962402 | 28.33° C | 58% | 1012.7 hPa | 0 mm | - | - | - |
| 1777961801 | 28.33° C | 59% | 1012.8 hPa | 0 mm | - | - | - |
* Rain latest hour (hover to see other rain measurements)
** Current wind speed in m/s (hover to see current wind gust speed)